Zurück zum Katalog

STARLINK-4768

AktivKommunikationVLEO
NORAD 53806·PAYLOAD·🇺🇸 United States

Gestartet Sep 11, 2022 von Cape Canaveral Space Force Station

Loading…

Nächste Überflüge (nächste 24 Stunden)

TLE

AktuellSource: CelesTrak SupGP

Epoche: Sep 14, 2026, 20:55 UTC

1 53806C 22111AK  26257.87201389 -.00018135  00000+0 -51889-3 0  2579
2 53806  53.1583 112.3431 0001337  85.0651 322.2105 15.35404875    11

Verfolge STARLINK-4768 in Echtzeit mit AllMySat

Download on the App Store